Location: Bogotá
(4.6533°N, 74.0837°W)
Time: 15:12:59
(UTC+00:00)

ISS - Pass Details

Date: 06 July 2025
Orbit: 413 x 417 km, 51.6° (Epoch: 13 July)

Event Time Altitude Azimuth Distance (km) Brightness Sun altitude
Rises 23:39:06 0° 204° (SSW) 2,337 0.0 -6.9°
Reaches altitude 10° 23:41:16 10° 195° (SSW) 1,475 -1.1 -7.4°
Maximum altitude 23:44:23 38° 125° (SE) 638 -3.3 -8.1°
Drops below altitude 10° 23:47:29 10° 55° (NE) 1,472 -1.3 -8.8°
Sets 23:49:39 0° 47° (NE) 2,332 -0.2 -9.3°
